Tracking 19644 objects as of 23-Apr-2019
HD Live streaming from Space Station
objects crossing your sky now

GALILEO 23 (2C9)

Track GALILEO 23 (2C9) now!
GALILEO 23 (2C9) is classified as:


NORAD ID: 43566
Int'l Code: 2018-060C
Perigee: 23,214.6 km
Apogee: 23,243.7 km
Inclination: 56.5 °
Period: 844.7 minutes
Semi major axis: 29600 km
RCS: Unknown
Launch date: July 25, 2018
Source: European Space Agency (ESA)
Launch site: FRENCH GUIANA (FRGUI)
aabbcc
Your satellite tracking list
Your tracking list is empty




NASA's NSSDC Master Catalog

Two Line Element Set (TLE):
1 43566U 18060C   19112.27132997 -.00000074  00000-0  00000+0 0  9994
2 43566  56.5268  52.6411 0004925 296.1773  63.7415  1.70475597  4647
Source of the keplerian elements: AFSPC